Location: ???????
(55.8719°N, 38.1523°E)
Time: 21:18:20
(UTC+00:00)

Cosmos 1943 Rocket - Pass Details

Date: 14 April 2024
Orbit: 810 x 845 km, 71.0° (Epoch: 23 May)

Event Time Altitude Azimuth Distance (km) Brightness Sun altitude
Rises 01:11:48 0° 323° (NW) 3,404 5.3 -9.9°
Reaches altitude 10° 01:14:21 10° 317° (NW) 2,469 4.5 -9.6°
Maximum altitude 01:19:39 43° 248° (WSW) 1,176 2.5 -9.0°
Drops below altitude 10° 01:24:57 10° 179° (S) 2,463 4.3 -8.3°
Sets 01:27:30 0° 173° (S) 3,393 5.1 -8.0°
